CZ-2D DEB (43038 NORAD) Tracking and Keplerian Element Data

This shows tracking and keplerian element data for the satellite.

Feedback or suggestion? Click here.




ElementValue
Catalog43038
NameCZ-2D DEB
Epoch Orbit438
Epoch Day1.72636664
Epoch Year2018
RAAN79.0124
Inclination97.3385
Eccentricity0.0040734
Argument of Perigee188.3084
Mean Anonmoly171.7461
Mean Motion15.29478037
Decay Rate4.025E-05
L11 43038U 17077E 18001.72636664 .00004025 00000-0 14008-3 0 9997
L22 43038 97.3385 79.0124 0040734 188.3084 171.7461 15.29478037 4386

Live tracking and technical data element details for CZ-2D DEB (NORAD 43038). CZ-2D DEB can be tracked NOW for your location showing map with azimuth and elevation plus other details from your city location.

Track the satellite on the map from your city or location and see movement details for azimuth, elevation, latitude, longitude, range, height, and movement on the map or in text.







IsCatalogInMostPopularTable: catalog: 43038, numindb: 136
Update: records affected: 1



GetName: 43038 CZ-2D DEB

Hit Count: updated at: Mon, 19 Nov 2018 11:45:36 GMT